Voltar ao catálogo

VINDLER 2.1

AtivoCiênciaSSO
NORAD 68488·PAYLOAD·🇺🇸 United States

Lançado Mar 30, 2026 de Vandenberg Space Force Base

Loading…

Próximas Passagens (próximas 24 horas)

TLE

AtualizadoSource: Space-Track

Época: Sep 13, 2026, 15:07 UTC

1 68488U 26067CA  26256.63049208  .00001391  00000-0  14201-3 0  9993
2 68488  97.7663 213.5618 0002602  96.6720 263.4796 14.92220553 24916

Acompanhe VINDLER 2.1 em tempo real com AllMySat

Download on the App Store